Simultaneous Nadir Overpasses (SNOs) Predictions

Prediction of SNOs between GOES-16 and TERRA Satellite Orbit:

Table of predicted SNOs for the next 14.0 days since TLE Epoch: 12/25/2021
Index Date Time (GOES-16) GOES-16 Lat,Lon TERRA Lat,Lon Distance(km) Time Diff (sec)
1 12/25/2021 15:05:30 -0.02, -75.19 -0.97, -70.83 495.79 80
2 12/26/2021 03:29:32 0.01, -75.17 -0.17, -76.02 96.72 80
3 12/28/2021 03:14:38 0.02, -75.18 0.48, -73.07 240.38 80
4 12/28/2021 15:38:32 -0.01, -75.20 0.65, -78.22 343.40 80
5 12/30/2021 15:26:18 -0.02, -75.21 -0.01, -75.26 6.11 80
6 01/01/2022 15:11:23 -0.02, -75.22 -0.61, -72.30 331.28 80
7 01/02/2022 03:35:27 0.02, -75.20 -0.46, -77.50 260.94 80
8 01/04/2022 03:20:32 0.02, -75.22 0.16, -74.54 77.06 80
9 01/06/2022 03:08:17 0.02, -75.24 0.78, -71.58 416.13 80
10 01/06/2022 15:29:32 -0.02, -75.27 0.29, -76.74 167.26 80
